Time,TemperatureF,DewpointF,PressureIn,WindDirection,WindDirectionDegrees,WindSpeedMPH,WindSpeedGustMPH,Humidity,HourlyPrecipIn,Conditions,Clouds,dailyrainin,SoftwareType,DateUTC
2013-04-25 00:01:00,46.0,38.5,30.24,SSE,150,4.0,8.0,75,0.00,,,0.35,Wunderground v.1.15,2013-04-25 05:01:00,
2013-04-25 00:06:00,46.0,38.5,30.25,SSE,156,3.0,8.0,75,0.00,,,0.00,Wunderground v.1.15,2013-04-25 05:06:00,
2013-04-25 00:11:00,45.9,38.8,30.25,SSE,167,2.0,8.0,76,0.00,,,0.00,Wunderground v.1.15,2013-04-25 05:11:00,
2013-04-25 00:17:00,45.6,38.1,30.25,SSE,162,2.0,8.0,75,0.00,,,0.00,Wunderground v.1.15,2013-04-25 05:17:00,
2013-04-25 00:22:00,45.3,37.5,30.25,ESE,116,3.0,8.0,74,0.00,,,0.00,Wunderground v.1.15,2013-04-25 05:22:00,
2013-04-25 00:27:00,45.2,37.7,30.25,South,185,4.0,8.0,75,0.00,,,0.00,Wunderground v.1.15,2013-04-25 05:27:00,
2013-04-25 00:33:00,45.1,38.0,30.25,SSE,148,4.0,8.0,76,0.00,,,0.00,Wunderground v.1.15,2013-04-25 05:33:00,
2013-04-25 00:39:00,45.0,37.9,30.25,SSE,157,3.0,8.0,76,0.00,,,0.00,Wunderground v.1.15,2013-04-25 05:39:00,
2013-04-25 00:44:00,44.8,37.7,30.25,ESE,117,3.0,8.0,76,0.00,,,0.00,Wunderground v.1.15,2013-04-25 05:44:00,
2013-04-25 00:49:00,44.7,37.9,30.25,SSE,166,2.0,8.0,77,0.00,,,0.00,Wunderground v.1.15,2013-04-25 05:49:00,
2013-04-25 00:55:00,44.8,38.0,30.25,SSE,155,2.0,8.0,77,0.00,,,0.00,Wunderground v.1.15,2013-04-25 05:55:00,
2013-04-25 01:00:00,44.8,38.4,30.25,South,178,2.0,2.0,78,0.00,,,0.00,Wunderground v.1.15,2013-04-25 06:00:00,
2013-04-25 01:05:00,44.8,38.0,30.25,SSE,162,2.0,8.0,77,0.00,,,0.00,Wunderground v.1.15,2013-04-25 06:05:00,
2013-04-25 01:11:00,44.9,38.1,30.24,South,173,2.0,8.0,77,0.00,,,0.00,Wunderground v.1.15,2013-04-25 06:11:00,
2013-04-25 01:16:00,44.9,38.5,30.24,SE,134,3.0,8.0,78,0.00,,,0.00,Wunderground v.1.15,2013-04-25 06:16:00,
2013-04-25 01:21:00,44.9,37.8,30.24,SSE,167,3.0,8.0,76,0.00,,,0.00,Wunderground v.1.15,2013-04-25 06:21:00,
2013-04-25 01:26:00,44.9,37.8,30.24,South,174,3.0,8.0,76,0.00,,,0.00,Wunderground v.1.15,2013-04-25 06:26:00,
2013-04-25 01:32:00,44.9,37.5,30.24,ESE,118,3.0,8.0,75,0.00,,,0.00,Wunderground v.1.15,2013-04-25 06:32:00,
2013-04-25 01:37:00,44.9,37.5,30.24,South,180,3.0,8.0,75,0.00,,,0.00,Wunderground v.1.15,2013-04-25 06:37:00,
2013-04-25 01:42:00,44.9,37.5,30.24,SSE,167,4.0,8.0,75,0.00,,,0.00,Wunderground v.1.15,2013-04-25 06:42:00,
2013-04-25 01:48:00,44.8,37.0,30.24,SE,144,4.0,8.0,74,0.00,,,0.00,Wunderground v.1.15,2013-04-25 06:48:00,
2013-04-25 01:53:00,44.7,36.9,30.24,SSE,162,4.0,8.0,74,0.00,,,0.00,Wunderground v.1.15,2013-04-25 06:53:00,
2013-04-25 01:58:00,44.7,36.6,30.24,SE,136,4.0,8.0,73,0.00,,,0.00,Wunderground v.1.15,2013-04-25 06:58:00,
2013-04-25 02:03:00,44.7,36.6,30.24,South,188,4.0,9.0,73,0.00,,,0.00,Wunderground v.1.15,2013-04-25 07:03:00,
2013-04-25 02:09:00,44.7,36.9,30.24,SE,136,4.0,10.0,74,0.00,,,0.00,Wunderground v.1.15,2013-04-25 07:09:00,
2013-04-25 02:14:00,44.7,36.9,30.24,SE,140,4.0,8.0,74,0.00,,,0.00,Wunderground v.1.15,2013-04-25 07:14:00,
2013-04-25 02:19:00,44.6,36.5,30.24,SSE,156,4.0,8.0,73,0.00,,,0.00,Wunderground v.1.15,2013-04-25 07:19:00,
2013-04-25 02:25:00,44.5,36.7,30.24,South,181,4.0,8.0,74,0.00,,,0.00,Wunderground v.1.15,2013-04-25 07:25:00,
2013-04-25 02:30:00,44.5,36.7,30.24,SE,140,4.0,8.0,74,0.00,,,0.00,Wunderground v.1.15,2013-04-25 07:30:00,
2013-04-25 02:35:00,44.4,36.6,30.24,SE,144,4.0,8.0,74,0.00,,,0.00,Wunderground v.1.15,2013-04-25 07:35:00,
2013-04-25 02:41:00,44.3,36.5,30.24,South,174,4.0,8.0,74,0.00,,,0.00,Wunderground v.1.15,2013-04-25 07:41:00,
2013-04-25 02:46:00,44.2,36.4,30.24,SSE,168,3.0,8.0,74,0.00,,,0.00,Wunderground v.1.15,2013-04-25 07:46:00,
2013-04-25 02:51:00,44.2,36.8,30.24,ESE,112,3.0,4.0,75,0.00,,,0.00,Wunderground v.1.15,2013-04-25 07:51:00,
2013-04-25 02:56:00,44.1,36.7,30.24,South,181,3.0,8.0,75,0.00,,,0.00,Wunderground v.1.15,2013-04-25 07:56:00,
2013-04-25 03:02:00,44.1,36.7,30.24,SE,144,2.0,8.0,75,0.00,,,0.00,Wunderground v.1.15,2013-04-25 08:02:00,
2013-04-25 03:07:00,44.0,36.6,30.23,South,178,3.0,8.0,75,0.00,,,0.00,Wunderground v.1.15,2013-04-25 08:07:00,
2013-04-25 03:12:00,43.9,36.5,30.23,SE,144,3.0,8.0,75,0.00,,,0.00,Wunderground v.1.15,2013-04-25 08:12:00,
2013-04-25 03:18:00,43.7,36.6,30.23,SSE,168,3.0,8.0,76,0.00,,,0.00,Wunderground v.1.15,2013-04-25 08:18:00,
2013-04-25 03:23:00,43.6,36.9,30.23,South,177,2.0,8.0,77,0.00,,,0.00,Wunderground v.1.15,2013-04-25 08:23:00,
2013-04-25 03:28:00,43.5,36.8,30.24,South,173,1.0,8.0,77,0.00,,,0.00,Wunderground v.1.15,2013-04-25 08:28:00,
2013-04-25 03:34:00,43.4,37.3,30.24,South,174,2.0,8.0,79,0.00,,,0.00,Wunderground v.1.15,2013-04-25 08:34:00,
2013-04-25 03:39:00,43.3,36.9,30.24,South,171,2.0,8.0,78,0.00,,,0.00,Wunderground v.1.15,2013-04-25 08:39:00,
2013-04-25 03:44:00,43.3,36.9,30.24,SSE,155,2.0,8.0,78,0.00,,,0.00,Wunderground v.1.15,2013-04-25 08:44:00,
2013-04-25 03:49:00,43.4,36.7,30.24,SSE,164,2.0,8.0,77,0.00,,,0.00,Wunderground v.1.15,2013-04-25 08:49:00,
2013-04-25 03:55:00,43.4,36.7,30.24,SSE,166,2.0,8.0,77,0.00,,,0.00,Wunderground v.1.15,2013-04-25 08:55:00,
2013-04-25 04:00:00,43.5,37.1,30.24,South,174,2.0,2.0,78,0.00,,,0.00,Wunderground v.1.15,2013-04-25 09:00:00,
2013-04-25 04:05:00,43.5,37.1,30.25,South,178,2.0,8.0,78,0.00,,,0.00,Wunderground v.1.15,2013-04-25 09:05:00,
2013-04-25 04:11:00,43.5,37.1,30.25,South,177,1.0,8.0,78,0.00,,,0.00,Wunderground v.1.15,2013-04-25 09:11:00,
2013-04-25 04:16:00,43.6,37.2,30.25,South,172,2.0,8.0,78,0.00,,,0.00,Wunderground v.1.15,2013-04-25 09:16:00,
2013-04-25 04:21:00,43.6,37.2,30.25,SSE,167,2.0,8.0,78,0.00,,,0.00,Wunderground v.1.15,2013-04-25 09:21:00,
2013-04-25 04:27:00,43.6,37.5,30.25,South,169,1.0,8.0,79,0.00,,,0.00,Wunderground v.1.15,2013-04-25 09:27:00,
2013-04-25 04:33:00,43.7,37.3,30.24,SE,131,2.0,8.0,78,0.00,,,0.00,Wunderground v.1.15,2013-04-25 09:33:00,
2013-04-25 04:38:00,43.6,37.2,30.24,South,173,2.0,8.0,78,0.00,,,0.00,Wunderground v.1.15,2013-04-25 09:38:00,
2013-04-25 04:43:00,43.5,37.4,30.24,South,174,2.0,8.0,79,0.00,,,0.00,Wunderground v.1.15,2013-04-25 09:43:00,
2013-04-25 04:49:00,43.2,37.1,30.25,South,174,1.0,8.0,79,0.00,,,0.00,Wunderground v.1.15,2013-04-25 09:49:00,
2013-04-25 04:54:00,43.2,37.1,30.25,South,174,1.0,8.0,79,0.00,,,0.00,Wunderground v.1.15,2013-04-25 09:54:00,
2013-04-25 04:59:00,43.0,36.9,30.25,South,169,1.0,8.0,79,0.00,,,0.00,Wunderground v.1.15,2013-04-25 09:59:00,
2013-04-25 05:05:00,42.7,37.3,30.26,South,171,1.0,8.0,81,0.00,,,0.00,Wunderground v.1.15,2013-04-25 10:05:00,
2013-04-25 05:10:00,42.4,37.0,30.26,South,172,1.0,8.0,81,0.00,,,0.00,Wunderground v.1.15,2013-04-25 10:10:00,
2013-04-25 05:15:00,42.2,37.1,30.26,South,169,1.0,8.0,82,0.00,,,0.00,Wunderground v.1.15,2013-04-25 10:15:00,
2013-04-25 05:20:00,42.0,36.6,30.26,SSE,162,2.0,8.0,81,0.00,,,0.00,Wunderground v.1.15,2013-04-25 10:20:00,
2013-04-25 05:26:00,41.9,36.5,30.26,SSE,166,2.0,8.0,81,0.00,,,0.00,Wunderground v.1.15,2013-04-25 10:26:00,
2013-04-25 05:31:00,41.6,36.5,30.27,South,174,2.0,8.0,82,0.00,,,0.00,Wunderground v.1.15,2013-04-25 10:31:00,
2013-04-25 05:36:00,41.2,36.4,30.26,South,174,1.0,8.0,83,0.00,,,0.00,Wunderground v.1.15,2013-04-25 10:36:00,
2013-04-25 05:42:00,40.8,36.3,30.27,South,177,1.0,8.0,84,0.00,,,0.00,Wunderground v.1.15,2013-04-25 10:42:00,
2013-04-25 05:48:00,40.4,36.2,30.27,South,172,1.0,8.0,85,0.00,,,0.00,Wunderground v.1.15,2013-04-25 10:48:00,
2013-04-25 05:53:00,40.1,36.2,30.27,South,183,1.0,8.0,86,0.00,,,0.00,Wunderground v.1.15,2013-04-25 10:53:00,
2013-04-25 05:58:00,40.0,35.9,30.28,South,172,1.0,8.0,85,0.00,,,0.00,Wunderground v.1.15,2013-04-25 10:58:00,
2013-04-25 06:04:00,39.8,35.7,30.28,South,172,1.0,8.0,85,0.00,,,0.00,Wunderground v.1.15,2013-04-25 11:04:00,
2013-04-25 06:09:00,39.7,35.9,30.28,South,177,1.0,8.0,86,0.00,,,0.00,Wunderground v.1.15,2013-04-25 11:09:00,
2013-04-25 06:14:00,39.6,35.8,30.29,South,178,1.0,8.0,86,0.00,,,0.00,Wunderground v.1.15,2013-04-25 11:14:00,
2013-04-25 06:20:00,39.3,35.5,30.29,South,178,0.0,8.0,86,0.00,,,0.00,Wunderground v.1.15,2013-04-25 11:20:00,
2013-04-25 06:25:00,39.1,35.6,30.29,South,178,0.0,8.0,87,0.00,,,0.00,Wunderground v.1.15,2013-04-25 11:25:00,
2013-04-25 06:30:00,39.3,35.8,30.29,South,178,0.0,8.0,87,0.00,,,0.00,Wunderground v.1.15,2013-04-25 11:30:00,
2013-04-25 06:35:00,39.5,35.7,30.29,South,178,0.0,8.0,86,0.00,,,0.00,Wunderground v.1.15,2013-04-25 11:35:00,
2013-04-25 06:41:00,39.8,36.0,30.30,South,178,0.0,8.0,86,0.00,,,0.00,Wunderground v.1.15,2013-04-25 11:41:00,
2013-04-25 06:46:00,39.9,35.8,30.30,South,178,0.0,8.0,85,0.00,,,0.00,Wunderground v.1.15,2013-04-25 11:46:00,
2013-04-25 06:51:00,40.2,36.1,30.30,South,178,0.0,8.0,85,0.00,,,0.00,Wunderground v.1.15,2013-04-25 11:51:00,
2013-04-25 06:57:00,40.5,36.3,30.30,SSE,166,0.0,8.0,85,0.00,,,0.00,Wunderground v.1.15,2013-04-25 11:57:00,
2013-04-25 07:02:00,40.8,36.6,30.31,South,174,1.0,8.0,85,0.00,,,0.00,Wunderground v.1.15,2013-04-25 12:02:00,
2013-04-25 07:07:00,41.1,36.9,30.31,South,174,1.0,8.0,85,0.00,,,0.00,Wunderground v.1.15,2013-04-25 12:07:00,
2013-04-25 07:12:00,41.3,36.8,30.31,SSE,162,1.0,8.0,84,0.00,,,0.00,Wunderground v.1.15,2013-04-25 12:12:00,
2013-04-25 07:18:00,41.6,37.1,30.31,SSE,164,2.0,8.0,84,0.00,,,0.00,Wunderground v.1.15,2013-04-25 12:18:00,
2013-04-25 07:23:00,41.8,37.3,30.31,South,171,2.0,8.0,84,0.00,,,0.00,Wunderground v.1.15,2013-04-25 12:23:00,
2013-04-25 07:28:00,42.1,37.3,30.31,South,188,2.0,8.0,83,0.00,,,0.00,Wunderground v.1.15,2013-04-25 12:28:00,
2013-04-25 07:34:00,42.5,37.7,30.32,South,181,2.0,8.0,83,0.00,,,0.00,Wunderground v.1.15,2013-04-25 12:34:00,
2013-04-25 07:39:00,42.9,38.4,30.32,South,171,2.0,8.0,84,0.00,,,0.00,Wunderground v.1.15,2013-04-25 12:39:00,
2013-04-25 07:44:00,43.1,37.3,30.32,South,179,2.0,8.0,80,0.00,,,0.00,Wunderground v.1.15,2013-04-25 12:44:00,
2013-04-25 07:50:00,43.5,38.1,30.32,SSE,164,3.0,3.0,81,0.00,,,0.00,Wunderground v.1.15,2013-04-25 12:50:00,
2013-04-25 07:56:00,44.0,38.5,30.32,South,188,3.0,8.0,81,0.00,,,0.00,Wunderground v.1.15,2013-04-25 12:56:00,
2013-04-25 08:01:00,44.7,38.9,30.32,SSE,157,2.0,3.0,80,0.00,,,0.00,Wunderground v.1.15,2013-04-25 13:01:00,
2013-04-25 08:06:00,44.7,37.9,30.32,South,185,3.0,8.0,77,0.00,,,0.00,Wunderground v.1.15,2013-04-25 13:06:00,
2013-04-25 08:12:00,44.8,38.0,30.33,SE,131,4.0,8.0,77,0.00,,,0.00,Wunderground v.1.15,2013-04-25 13:12:00,
2013-04-25 08:17:00,45.3,38.5,30.32,South,178,3.0,8.0,77,0.00,,,0.00,Wunderground v.1.15,2013-04-25 13:17:00,
2013-04-25 08:22:00,45.5,38.0,30.33,ESE,117,3.0,8.0,75,0.00,,,0.00,Wunderground v.1.15,2013-04-25 13:22:00,
2013-04-25 08:28:00,46.1,39.0,30.33,South,179,2.0,8.0,76,0.00,,,0.00,Wunderground v.1.15,2013-04-25 13:28:00,
2013-04-25 08:33:00,46.4,38.6,30.33,South,181,3.0,8.0,74,0.00,,,0.00,Wunderground v.1.15,2013-04-25 13:33:00,
2013-04-25 08:38:00,46.9,39.0,30.33,SE,129,4.0,8.0,74,0.00,,,0.00,Wunderground v.1.15,2013-04-25 13:38:00,
2013-04-25 08:43:00,47.3,39.8,30.33,SE,135,3.0,8.0,75,0.00,,,0.00,Wunderground v.1.15,2013-04-25 13:43:00,
2013-04-25 08:49:00,47.2,39.0,30.33,South,181,3.0,8.0,73,0.00,,,0.00,Wunderground v.1.15,2013-04-25 13:49:00,
2013-04-25 08:54:00,47.7,39.1,30.33,South,184,4.0,8.0,72,0.00,,,0.00,Wunderground v.1.15,2013-04-25 13:54:00,
2013-04-25 08:59:00,48.0,39.8,30.33,SSE,147,4.0,8.0,73,0.00,,,0.00,Wunderground v.1.15,2013-04-25 13:59:00,
2013-04-25 09:05:00,48.3,39.7,30.34,SE,145,3.0,8.0,72,0.00,,,0.00,Wunderground v.1.15,2013-04-25 14:05:00,
2013-04-25 09:10:00,48.3,39.0,30.34,SSW,192,3.0,3.0,70,0.00,,,0.00,Wunderground v.1.15,2013-04-25 14:10:00,
2013-04-25 09:15:00,48.7,39.4,30.34,SE,132,4.0,8.0,70,0.00,,,0.00,Wunderground v.1.15,2013-04-25 14:15:00,
2013-04-25 09:20:00,49.2,40.2,30.34,South,178,3.0,8.0,71,0.00,,,0.00,Wunderground v.1.15,2013-04-25 14:20:00,
2013-04-25 09:26:00,49.7,39.9,30.34,South,174,3.0,9.0,69,0.00,,,0.00,Wunderground v.1.15,2013-04-25 14:26:00,
2013-04-25 09:31:00,49.9,39.8,30.34,SSE,156,3.0,6.0,68,0.00,,,0.00,Wunderground v.1.15,2013-04-25 14:31:00,
2013-04-25 09:36:00,49.9,39.4,30.34,ESE,114,4.0,8.0,67,0.00,,,0.00,Wunderground v.1.15,2013-04-25 14:36:00,
2013-04-25 09:42:00,50.2,40.0,30.34,South,181,4.0,8.0,68,0.00,,,0.00,Wunderground v.1.15,2013-04-25 14:42:00,
2013-04-25 09:47:00,50.7,40.1,30.35,South,186,3.0,8.0,67,0.00,,,0.00,Wunderground v.1.15,2013-04-25 14:47:00,
2013-04-25 09:52:00,50.9,40.3,30.34,SSE,166,3.0,8.0,67,0.00,,,0.00,Wunderground v.1.15,2013-04-25 14:52:00,
2013-04-25 09:58:00,51.2,41.0,30.35,SSE,148,4.0,8.0,68,0.00,,,0.00,Wunderground v.1.15,2013-04-25 14:58:00,
2013-04-25 10:03:00,51.4,40.4,30.35,SSE,162,4.0,8.0,66,0.00,,,0.00,Wunderground v.1.15,2013-04-25 15:03:00,
2013-04-25 10:08:00,51.6,40.6,30.35,South,170,3.0,8.0,66,0.00,,,0.00,Wunderground v.1.15,2013-04-25 15:08:00,
2013-04-25 10:14:00,51.9,40.9,30.35,South,183,3.0,8.0,66,0.00,,,0.00,Wunderground v.1.15,2013-04-25 15:14:00,
2013-04-25 10:19:00,52.4,40.2,30.35,SE,140,3.0,8.0,63,0.00,,,0.00,Wunderground v.1.15,2013-04-25 15:19:00,
2013-04-25 10:24:00,53.1,40.8,30.34,SE,145,3.0,8.0,63,0.00,,,0.00,Wunderground v.1.15,2013-04-25 15:24:00,
2013-04-25 10:29:00,53.1,40.0,30.35,South,170,3.0,8.0,61,0.00,,,0.00,Wunderground v.1.15,2013-04-25 15:29:00,
2013-04-25 10:35:00,54.0,40.0,30.35,South,170,3.0,8.0,59,0.00,,,0.00,Wunderground v.1.15,2013-04-25 15:35:00,
2013-04-25 10:41:00,54.5,40.5,30.35,South,178,3.0,8.0,59,0.00,,,0.00,Wunderground v.1.15,2013-04-25 15:41:00,
2013-04-25 10:46:00,54.6,40.1,30.35,South,173,2.0,8.0,58,0.00,,,0.00,Wunderground v.1.15,2013-04-25 15:46:00,
2013-04-25 10:51:00,54.7,40.2,30.35,South,179,2.0,8.0,58,0.00,,,0.00,Wunderground v.1.15,2013-04-25 15:51:00,
2013-04-25 10:56:00,56.1,40.6,30.35,SSW,193,2.0,8.0,56,0.00,,,0.00,Wunderground v.1.15,2013-04-25 15:56:00,
2013-04-25 11:02:00,56.9,40.4,30.35,South,178,2.0,8.0,54,0.00,,,0.00,Wunderground v.1.15,2013-04-25 16:02:00,
2013-04-25 11:07:00,57.1,40.1,30.35,South,183,3.0,8.0,53,0.00,,,0.00,Wunderground v.1.15,2013-04-25 16:07:00,
2013-04-25 11:12:00,57.2,39.7,30.35,South,178,3.0,8.0,52,0.00,,,0.00,Wunderground v.1.15,2013-04-25 16:12:00,
2013-04-25 11:18:00,57.5,41.0,30.35,South,183,3.0,8.0,54,0.00,,,0.00,Wunderground v.1.15,2013-04-25 16:18:00,
2013-04-25 11:23:00,58.1,39.5,30.35,SSW,193,2.0,8.0,50,0.00,,,0.00,Wunderground v.1.15,2013-04-25 16:23:00,
2013-04-25 11:28:00,58.5,41.4,30.35,South,176,2.0,8.0,53,0.00,,,0.00,Wunderground v.1.15,2013-04-25 16:28:00,
2013-04-25 11:34:00,58.7,39.0,30.35,SE,139,3.0,8.0,48,0.00,,,0.00,Wunderground v.1.15,2013-04-25 16:34:00,
2013-04-25 11:39:00,58.4,38.8,30.35,South,171,3.0,8.0,48,0.00,,,0.00,Wunderground v.1.15,2013-04-25 16:39:00,
2013-04-25 11:45:00,58.4,40.8,30.34,South,174,3.0,8.0,52,0.00,,,0.00,Wunderground v.1.15,2013-04-25 16:45:00,
2013-04-25 11:50:00,59.1,38.3,30.34,South,190,3.0,3.0,46,0.00,,,0.00,Wunderground v.1.15,2013-04-25 16:50:00,
2013-04-25 11:55:00,58.9,37.6,30.34,South,184,4.0,8.0,45,0.00,,,0.00,Wunderground v.1.15,2013-04-25 16:55:00,
2013-04-25 12:01:00,59.6,39.9,30.34,ESE,123,3.0,7.0,48,0.00,,,0.00,Wunderground v.1.15,2013-04-25 17:01:00,
2013-04-25 12:06:00,60.0,39.7,30.34,South,188,3.0,8.0,47,0.00,,,0.00,Wunderground v.1.15,2013-04-25 17:06:00,
2013-04-25 12:11:00,60.6,40.8,30.33,South,186,3.0,8.0,48,0.00,,,0.00,Wunderground v.1.15,2013-04-25 17:11:00,
2013-04-25 12:16:00,62.2,40.0,30.33,SE,139,1.0,8.0,44,0.00,,,0.00,Wunderground v.1.15,2013-04-25 17:16:00,
2013-04-25 12:22:00,62.4,40.2,30.33,South,186,2.0,8.0,44,0.00,,,0.00,Wunderground v.1.15,2013-04-25 17:22:00,
2013-04-25 12:27:00,62.4,38.4,30.33,SE,140,2.0,8.0,41,0.00,,,0.00,Wunderground v.1.15,2013-04-25 17:27:00,
2013-04-25 12:32:00,61.7,37.7,30.33,South,176,3.0,8.0,41,0.00,,,0.00,Wunderground v.1.15,2013-04-25 17:32:00,
2013-04-25 12:38:00,61.9,37.9,30.33,SSW,195,3.0,8.0,41,0.00,,,0.00,Wunderground v.1.15,2013-04-25 17:38:00,
2013-04-25 12:43:00,62.1,38.7,30.33,South,176,3.0,8.0,42,0.00,,,0.00,Wunderground v.1.15,2013-04-25 17:43:00,
2013-04-25 12:48:00,62.7,37.4,30.33,SW,218,3.0,8.0,39,0.00,,,0.00,Wunderground v.1.15,2013-04-25 17:48:00,
2013-04-25 12:54:00,62.5,39.1,30.33,SSE,153,2.0,8.0,42,0.00,,,0.00,Wunderground v.1.15,2013-04-25 17:54:00,
2013-04-25 12:59:00,62.1,37.5,30.33,South,179,3.0,8.0,40,0.00,,,0.00,Wunderground v.1.15,2013-04-25 17:59:00,
2013-04-25 13:04:00,63.1,37.1,30.33,SSE,162,3.0,8.0,38,0.00,,,0.00,Wunderground v.1.15,2013-04-25 18:04:00,
2013-04-25 13:09:00,63.0,37.6,30.32,SSE,152,3.0,8.0,39,0.00,,,0.00,Wunderground v.1.15,2013-04-25 18:09:00,
2013-04-25 13:15:00,63.6,38.2,30.32,South,180,3.0,8.0,39,0.00,,,0.00,Wunderground v.1.15,2013-04-25 18:15:00,
2013-04-25 13:20:00,63.7,38.3,30.32,SE,133,3.0,8.0,39,0.00,,,0.00,Wunderground v.1.15,2013-04-25 18:20:00,
2013-04-25 13:25:00,63.3,36.6,30.32,SE,137,4.0,8.0,37,0.00,,,0.00,Wunderground v.1.15,2013-04-25 18:25:00,
2013-04-25 13:30:00,63.4,36.0,30.32,SSW,211,3.0,8.0,36,0.00,,,0.00,Wunderground v.1.15,2013-04-25 18:30:00,
2013-04-25 13:36:00,63.9,39.1,30.32,South,176,3.0,8.0,40,0.00,,,0.00,Wunderground v.1.15,2013-04-25 18:36:00,
2013-04-25 13:41:00,64.2,38.0,30.32,South,173,4.0,8.0,38,0.00,,,0.00,Wunderground v.1.15,2013-04-25 18:41:00,
2013-04-25 13:47:00,64.9,40.6,30.32,South,191,4.0,8.0,41,0.00,,,0.00,Wunderground v.1.15,2013-04-25 18:47:00,
2013-04-25 13:52:00,65.4,36.3,30.32,South,176,3.0,8.0,34,0.00,,,0.00,Wunderground v.1.15,2013-04-25 18:52:00,
2013-04-25 13:57:00,65.4,37.7,30.31,SSE,149,3.0,8.0,36,0.00,,,0.00,Wunderground v.1.15,2013-04-25 18:57:00,
2013-04-25 14:03:00,65.7,38.0,30.31,SSE,166,4.0,8.0,36,0.00,,,0.00,Wunderground v.1.15,2013-04-25 19:03:00,
2013-04-25 14:08:00,66.5,36.5,30.31,South,187,3.0,8.0,33,0.00,,,0.00,Wunderground v.1.15,2013-04-25 19:08:00,
2013-04-25 14:13:00,66.3,33.9,30.31,SSE,164,2.0,8.0,30,0.00,,,0.00,Wunderground v.1.15,2013-04-25 19:13:00,
2013-04-25 14:19:00,66.9,34.4,30.31,SSW,210,2.0,8.0,30,0.00,,,0.00,Wunderground v.1.15,2013-04-25 19:19:00,
2013-04-25 14:24:00,66.4,34.0,30.30,South,175,3.0,8.0,30,0.00,,,0.00,Wunderground v.1.15,2013-04-25 19:24:00,
2013-04-25 14:29:00,67.0,36.1,30.30,South,185,3.0,8.0,32,0.00,,,0.00,Wunderground v.1.15,2013-04-25 19:29:00,
2013-04-25 14:34:00,67.1,37.0,30.30,South,173,3.0,8.0,33,0.00,,,0.00,Wunderground v.1.15,2013-04-25 19:34:00,
2013-04-25 14:40:00,66.9,34.4,30.30,South,181,4.0,4.0,30,0.00,,,0.00,Wunderground v.1.15,2013-04-25 19:40:00,
2013-04-25 14:45:00,66.7,32.5,30.30,SSE,149,4.0,8.0,28,0.00,,,0.00,Wunderground v.1.15,2013-04-25 19:45:00,
2013-04-25 14:50:00,66.8,33.5,30.29,SE,140,3.0,8.0,29,0.00,,,0.00,Wunderground v.1.15,2013-04-25 19:50:00,
2013-04-25 14:56:00,67.7,33.4,30.29,SSE,162,3.0,8.0,28,0.00,,,0.00,Wunderground v.1.15,2013-04-25 19:56:00,
2013-04-25 15:01:00,67.3,32.1,30.29,South,185,4.0,4.0,27,0.00,,,0.00,Wunderground v.1.15,2013-04-25 20:01:00,
2013-04-25 15:06:00,67.3,34.8,30.29,South,171,4.0,8.0,30,0.00,,,0.00,Wunderground v.1.15,2013-04-25 20:06:00,
2013-04-25 15:12:00,67.5,30.4,30.29,SSW,194,4.0,8.0,25,0.00,,,0.00,Wunderground v.1.15,2013-04-25 20:12:00,
2013-04-25 15:18:00,67.5,28.4,30.29,South,180,3.0,8.0,23,0.00,,,0.00,Wunderground v.1.15,2013-04-25 20:18:00,
2013-04-25 15:23:00,68.0,28.8,30.29,South,173,2.0,8.0,23,0.00,,,0.00,Wunderground v.1.15,2013-04-25 20:23:00,
2013-04-25 15:28:00,67.6,28.5,30.28,SSE,157,2.0,8.0,23,0.00,,,0.00,Wunderground v.1.15,2013-04-25 20:28:00,
2013-04-25 15:34:00,67.6,29.5,30.28,SE,134,4.0,8.0,24,0.00,,,0.00,Wunderground v.1.15,2013-04-25 20:34:00,
2013-04-25 15:39:00,67.7,27.5,30.28,SSE,166,4.0,8.0,22,0.00,,,0.00,Wunderground v.1.15,2013-04-25 20:39:00,
2013-04-25 15:45:00,67.8,27.5,30.28,SSE,167,3.0,8.0,22,0.00,,,0.00,Wunderground v.1.15,2013-04-25 20:45:00,
2013-04-25 15:50:00,67.5,25.0,30.29,SE,131,3.0,8.0,20,0.00,,,0.00,Wunderground v.1.15,2013-04-25 20:50:00,
2013-04-25 15:55:00,67.4,29.3,30.29,SE,143,3.0,8.0,24,0.00,,,0.00,Wunderground v.1.15,2013-04-25 20:55:00,
2013-04-25 16:01:00,67.5,28.4,30.29,SW,224,2.0,8.0,23,0.00,,,0.00,Wunderground v.1.15,2013-04-25 21:01:00,
2013-04-25 16:06:00,67.2,29.2,30.29,South,178,2.0,8.0,24,0.00,,,0.00,Wunderground v.1.15,2013-04-25 21:06:00,
2013-04-25 16:11:00,68.6,32.3,30.29,South,190,2.0,8.0,26,0.00,,,0.00,Wunderground v.1.15,2013-04-25 21:11:00,
2013-04-25 16:17:00,68.9,32.6,30.29,East,82,1.0,8.0,26,0.00,,,0.00,Wunderground v.1.15,2013-04-25 21:17:00,
2013-04-25 16:22:00,67.8,31.6,30.29,ESE,122,2.0,8.0,26,0.00,,,0.00,Wunderground v.1.15,2013-04-25 21:22:00,
2013-04-25 16:27:00,67.7,34.3,30.29,South,185,2.0,8.0,29,0.00,,,0.00,Wunderground v.1.15,2013-04-25 21:27:00,
2013-04-25 16:33:00,67.4,33.1,30.29,SE,136,2.0,8.0,28,0.00,,,0.00,Wunderground v.1.15,2013-04-25 21:33:00,
2013-04-25 16:38:00,67.2,30.2,30.29,South,180,2.0,8.0,25,0.00,,,0.00,Wunderground v.1.15,2013-04-25 21:38:00,
2013-04-25 16:43:00,67.1,31.0,30.30,SSE,162,3.0,8.0,26,0.00,,,0.00,Wunderground v.1.15,2013-04-25 21:43:00,
2013-04-25 16:49:00,67.8,31.6,30.30,SSE,159,2.0,8.0,26,0.00,,,0.00,Wunderground v.1.15,2013-04-25 21:49:00,
2013-04-25 16:55:00,68.1,31.9,30.30,South,185,1.0,8.0,26,0.00,,,0.00,Wunderground v.1.15,2013-04-25 21:55:00,
2013-04-25 17:00:00,67.2,33.8,30.30,South,176,2.0,2.0,29,0.00,,,0.00,Wunderground v.1.15,2013-04-25 22:00:00,
2013-04-25 17:05:00,67.0,30.0,30.30,South,178,2.0,8.0,25,0.00,,,0.00,Wunderground v.1.15,2013-04-25 22:05:00,
2013-04-25 17:11:00,66.2,31.2,30.30,South,174,2.0,8.0,27,0.00,,,0.00,Wunderground v.1.15,2013-04-25 22:11:00,
2013-04-25 17:16:00,66.2,30.3,30.30,South,171,2.0,8.0,26,0.00,,,0.00,Wunderground v.1.15,2013-04-25 22:16:00,
2013-04-25 17:21:00,66.4,32.3,30.30,South,178,2.0,8.0,28,0.00,,,0.00,Wunderground v.1.15,2013-04-25 22:21:00,
2013-04-25 17:28:00,65.9,30.0,30.30,South,169,2.0,8.0,26,0.00,,,0.00,Wunderground v.1.15,2013-04-25 22:28:00,
2013-04-25 17:33:00,65.8,29.9,30.30,South,179,2.0,8.0,26,0.00,,,0.00,Wunderground v.1.15,2013-04-25 22:33:00,
2013-04-25 17:38:00,65.8,29.9,30.30,SSE,162,2.0,8.0,26,0.00,,,0.00,Wunderground v.1.15,2013-04-25 22:38:00,
2013-04-25 17:44:00,65.6,28.8,30.30,SSE,163,2.0,8.0,25,0.00,,,0.00,Wunderground v.1.15,2013-04-25 22:44:00,
2013-04-25 17:49:00,65.0,30.2,30.30,SE,127,3.0,8.0,27,0.00,,,0.00,Wunderground v.1.15,2013-04-25 22:49:00,
2013-04-25 17:54:00,64.8,29.1,30.30,South,173,2.0,8.0,26,0.00,,,0.00,Wunderground v.1.15,2013-04-25 22:54:00,
2013-04-25 18:00:00,64.3,28.7,30.30,SSE,164,3.0,3.0,26,0.00,,,0.00,Wunderground v.1.15,2013-04-25 23:00:00,
2013-04-25 18:06:00,63.9,29.2,30.30,SSE,166,3.0,8.0,27,0.00,,,0.00,Wunderground v.1.15,2013-04-25 23:06:00,
2013-04-25 18:11:00,63.8,30.0,30.30,South,184,3.0,8.0,28,0.00,,,0.00,Wunderground v.1.15,2013-04-25 23:11:00,
2013-04-25 18:16:00,63.6,29.9,30.30,South,174,2.0,8.0,28,0.00,,,0.00,Wunderground v.1.15,2013-04-25 23:16:00,
2013-04-25 18:22:00,63.4,29.7,30.30,SSE,159,2.0,8.0,28,0.00,,,0.00,Wunderground v.1.15,2013-04-25 23:22:00,
2013-04-25 18:27:00,63.4,30.6,30.30,South,181,1.0,8.0,29,0.00,,,0.00,Wunderground v.1.15,2013-04-25 23:27:00,
2013-04-25 18:32:00,63.3,30.5,30.30,South,181,1.0,8.0,29,0.00,,,0.00,Wunderground v.1.15,2013-04-25 23:32:00,
2013-04-25 18:38:00,62.4,30.5,30.30,South,179,1.0,8.0,30,0.00,,,0.00,Wunderground v.1.15,2013-04-25 23:38:00,
2013-04-25 18:44:00,61.6,30.6,30.30,South,175,1.0,8.0,31,0.00,,,0.00,Wunderground v.1.15,2013-04-25 23:44:00,
2013-04-25 18:49:00,61.1,30.2,30.30,South,174,1.0,8.0,31,0.00,,,0.00,Wunderground v.1.15,2013-04-25 23:49:00,
2013-04-25 18:54:00,60.5,32.0,30.30,South,187,1.0,8.0,34,0.00,,,0.00,Wunderground v.1.15,2013-04-25 23:54:00,
2013-04-25 19:00:00,59.7,29.8,30.30,South,176,1.0,8.0,32,0.00,,,0.00,Wunderground v.1.15,2013-04-26 00:00:00,
2013-04-25 19:05:00,59.1,30.0,30.30,South,178,1.0,8.0,33,0.00,,,0.00,Wunderground v.1.15,2013-04-26 00:05:00,
2013-04-25 19:10:00,58.8,29.0,30.30,South,171,1.0,8.0,32,0.00,,,0.00,Wunderground v.1.15,2013-04-26 00:10:00,
2013-04-25 19:16:00,58.6,30.3,30.30,South,176,1.0,8.0,34,0.00,,,0.00,Wunderground v.1.15,2013-04-26 00:16:00,
2013-04-25 19:21:00,58.4,29.4,30.30,South,176,1.0,8.0,33,0.00,,,0.00,Wunderground v.1.15,2013-04-26 00:21:00,
2013-04-25 19:26:00,58.1,29.8,30.30,South,181,1.0,8.0,34,0.00,,,0.00,Wunderground v.1.15,2013-04-26 00:26:00,
2013-04-25 19:32:00,57.8,28.9,30.30,South,175,1.0,8.0,33,0.00,,,0.00,Wunderground v.1.15,2013-04-26 00:32:00,
2013-04-25 19:38:00,57.6,29.4,30.30,South,178,1.0,8.0,34,0.00,,,0.00,Wunderground v.1.15,2013-04-26 00:38:00,
2013-04-25 19:43:00,57.4,29.2,30.30,South,178,1.0,8.0,34,0.00,,,0.00,Wunderground v.1.15,2013-04-26 00:43:00,
2013-04-25 19:48:00,57.1,30.4,30.30,South,174,1.0,8.0,36,0.00,,,0.00,Wunderground v.1.15,2013-04-26 00:48:00,
2013-04-25 19:54:00,56.8,28.7,30.31,South,183,1.0,8.0,34,0.00,,,0.00,Wunderground v.1.15,2013-04-26 00:54:00,
2013-04-25 19:59:00,56.5,29.8,30.31,South,178,1.0,8.0,36,0.00,,,0.00,Wunderground v.1.15,2013-04-26 00:59:00,
2013-04-25 20:04:00,56.3,29.7,30.31,South,181,1.0,8.0,36,0.00,,,0.00,Wunderground v.1.15,2013-04-26 01:04:00,
2013-04-25 20:10:00,56.2,30.2,30.31,SSE,153,1.0,8.0,37,0.00,,,0.00,Wunderground v.1.15,2013-04-26 01:10:00,
2013-04-25 20:15:00,56.2,29.6,30.32,South,178,2.0,8.0,36,0.00,,,0.00,Wunderground v.1.15,2013-04-26 01:15:00,
2013-04-25 20:20:00,56.1,29.5,30.32,South,178,1.0,8.0,36,0.00,,,0.00,Wunderground v.1.15,2013-04-26 01:20:00,
2013-04-25 20:25:00,56.0,30.1,30.32,South,178,1.0,8.0,37,0.00,,,0.00,Wunderground v.1.15,2013-04-26 01:25:00,
2013-04-25 20:31:00,55.9,30.0,30.32,South,178,1.0,8.0,37,0.00,,,0.00,Wunderground v.1.15,2013-04-26 01:31:00,
2013-04-25 20:36:00,55.6,30.4,30.33,South,178,1.0,8.0,38,0.00,,,0.00,Wunderground v.1.15,2013-04-26 01:36:00,
2013-04-25 20:41:00,55.1,30.6,30.33,South,171,0.0,8.0,39,0.00,,,0.00,Wunderground v.1.15,2013-04-26 01:41:00,
2013-04-25 20:47:00,54.9,30.4,30.33,South,178,1.0,8.0,39,0.00,,,0.00,Wunderground v.1.15,2013-04-26 01:47:00,
2013-04-25 20:52:00,54.4,31.2,30.33,South,180,0.0,8.0,41,0.00,,,0.00,Wunderground v.1.15,2013-04-26 01:52:00,
2013-04-25 20:57:00,53.5,31.0,30.34,South,185,0.0,8.0,42,0.00,,,0.00,Wunderground v.1.15,2013-04-26 01:57:00,
2013-04-25 21:03:00,52.8,31.5,30.34,South,178,0.0,8.0,44,0.00,,,0.00,Wunderground v.1.15,2013-04-26 02:03:00,
2013-04-25 21:08:00,52.8,32.0,30.35,South,180,0.0,8.0,45,0.00,,,0.00,Wunderground v.1.15,2013-04-26 02:08:00,
2013-04-25 21:13:00,52.6,31.3,30.35,South,170,0.0,8.0,44,0.00,,,0.00,Wunderground v.1.15,2013-04-26 02:13:00,
2013-04-25 21:18:00,52.8,31.5,30.35,South,174,1.0,8.0,44,0.00,,,0.00,Wunderground v.1.15,2013-04-26 02:18:00,
2013-04-25 21:24:00,52.8,31.5,30.35,South,175,1.0,8.0,44,0.00,,,0.00,Wunderground v.1.15,2013-04-26 02:24:00,
2013-04-25 21:29:00,52.5,31.8,30.35,South,175,0.0,8.0,45,0.00,,,0.00,Wunderground v.1.15,2013-04-26 02:29:00,
2013-04-25 21:34:00,52.3,32.1,30.35,South,176,1.0,8.0,46,0.00,,,0.00,Wunderground v.1.15,2013-04-26 02:34:00,
2013-04-25 21:40:00,52.2,31.5,30.35,South,176,1.0,8.0,45,0.00,,,0.00,Wunderground v.1.15,2013-04-26 02:40:00,
2013-04-25 21:45:00,52.6,31.8,30.36,South,176,1.0,8.0,45,0.00,,,0.00,Wunderground v.1.15,2013-04-26 02:45:00,
2013-04-25 21:50:00,52.8,31.5,30.36,South,175,1.0,1.0,44,0.00,,,0.00,Wunderground v.1.15,2013-04-26 02:50:00,
2013-04-25 21:55:00,52.7,31.9,30.36,South,178,1.0,8.0,45,0.00,,,0.00,Wunderground v.1.15,2013-04-26 02:55:00,
2013-04-25 22:01:00,52.4,31.7,30.36,South,178,1.0,8.0,45,0.00,,,0.00,Wunderground v.1.15,2013-04-26 03:01:00,
2013-04-25 22:06:00,52.3,32.1,30.36,South,178,1.0,8.0,46,0.00,,,0.00,Wunderground v.1.15,2013-04-26 03:06:00,
2013-04-25 22:11:00,52.3,32.1,30.36,South,179,1.0,8.0,46,0.00,,,0.00,Wunderground v.1.15,2013-04-26 03:11:00,
2013-04-25 22:17:00,51.8,35.2,30.36,SSW,193,1.0,8.0,53,0.00,,,0.00,Wunderground v.1.15,2013-04-26 03:17:00,
2013-04-25 22:22:00,50.1,34.5,30.36,SSW,193,0.0,8.0,55,0.00,,,0.00,Wunderground v.1.15,2013-04-26 03:22:00,
2013-04-25 22:27:00,49.6,32.2,30.36,SSW,193,0.0,8.0,51,0.00,,,0.00,Wunderground v.1.15,2013-04-26 03:27:00,
2013-04-25 22:33:00,49.8,34.7,30.36,SSW,193,0.0,8.0,56,0.00,,,0.00,Wunderground v.1.15,2013-04-26 03:33:00,
2013-04-25 22:39:00,48.7,34.6,30.36,SSW,193,0.0,8.0,58,0.00,,,0.00,Wunderground v.1.15,2013-04-26 03:39:00,
2013-04-25 22:44:00,48.2,33.7,30.36,South,190,0.0,8.0,57,0.00,,,0.00,Wunderground v.1.15,2013-04-26 03:44:00,
2013-04-25 22:49:00,48.4,33.4,30.36,South,183,0.0,8.0,56,0.00,,,0.00,Wunderground v.1.15,2013-04-26 03:49:00,
2013-04-25 22:55:00,49.1,34.1,30.36,South,183,0.0,8.0,56,0.00,,,0.00,Wunderground v.1.15,2013-04-26 03:55:00,
2013-04-25 23:00:00,49.3,33.8,30.36,South,183,0.0,8.0,55,0.00,,,0.00,Wunderground v.1.15,2013-04-26 04:00:00,
2013-04-25 23:01:00,49.3,33.8,30.36,South,183,0.0,8.0,55,0.00,,,0.00,Wunderground v.1.15,2013-04-26 04:01:00,
2013-04-25 23:02:00,49.3,33.8,30.36,South,183,0.0,8.0,55,0.00,,,0.00,Wunderground v.1.15,2013-04-26 04:02:00,
2013-04-25 23:04:00,49.2,33.7,30.36,South,174,0.0,8.0,55,0.00,,,0.00,Wunderground v.1.15,2013-04-26 04:04:00,
2013-04-25 23:07:00,49.2,33.7,30.35,South,174,0.0,8.0,55,0.00,,,0.00,Wunderground v.1.15,2013-04-26 04:07:00,
2013-04-25 23:08:00,49.2,33.7,30.35,South,174,0.0,8.0,55,0.00,,,0.00,Wunderground v.1.15,2013-04-26 04:08:00,
2013-04-25 23:13:00,49.3,34.3,30.35,South,174,1.0,8.0,56,0.00,,,0.00,Wunderground v.1.15,2013-04-26 04:13:00,
2013-04-25 23:18:00,49.3,33.8,30.35,South,174,1.0,8.0,55,0.00,,,0.00,Wunderground v.1.15,2013-04-26 04:18:00,
2013-04-25 23:23:00,49.5,34.0,30.35,South,170,2.0,8.0,55,0.00,,,0.00,Wunderground v.1.15,2013-04-26 04:23:00,
2013-04-25 23:29:00,49.3,33.8,30.35,South,172,1.0,8.0,55,0.00,,,0.00,Wunderground v.1.15,2013-04-26 04:29:00,
2013-04-25 23:34:00,49.3,34.3,30.36,South,176,1.0,8.0,56,0.00,,,0.00,Wunderground v.1.15,2013-04-26 04:34:00,
2013-04-25 23:39:00,48.8,34.7,30.36,South,176,0.0,8.0,58,0.00,,,0.00,Wunderground v.1.15,2013-04-26 04:39:00,
2013-04-25 23:44:00,48.1,34.4,30.36,South,176,0.0,8.0,59,0.00,,,0.00,Wunderground v.1.15,2013-04-26 04:44:00,
2013-04-25 23:50:00,47.6,35.2,30.36,South,177,0.0,8.0,62,0.00,,,0.00,Wunderground v.1.15,2013-04-26 04:50:00,
2013-04-25 23:55:00,46.5,35.0,30.36,South,177,0.0,8.0,64,0.00,,,0.00,Wunderground v.1.15,2013-04-26 04:55:00,